Погода в Джунии

Ливан     33°59′38″N   35°38′02″E
темп.,
°C
ветер,
м/с
пор.,
м/с
влажн.,
%
обл.,
%
осадки,
мм/ч
давл.,
гПа
погр.,
м
11 апреля, вс
вс1100:00+2юз5996100 1.8 1015622
03:00+2зюз4995100 4.9 1015674
06:00+3зюз128732 1.3 1016177
09:00+4ю249073 1.6 1017359
12:00+4юз5890100 0.9 1018638
15:00+4зюз4688100 1.7 1019552
18:00+4ю238491 0.7 1019374
21:00+3вюв328311 0.9 102126
12 апреля, пн
пн1200:00+2вюв33754 0.0 102123
03:00+2вюв337212 0.0 102024
06:00+2вюв327727 0.0 102021
09:00+6юз227636 0.2 1020714
12:00+7з338258 0.6 1019577
15:00+5з339197 1.2 1020410
18:00+6зсз228029 0.2 1019578
21:00+4в22861 0.3 102155
13 апреля, вт
вт1300:00+3в22730 0.0 102112
03:00+3в22711 0.0 102019
06:00+3в32640 0.0 102017
09:00+7сз21530 0.0 1020422
12:00+10зсз32590 0.0 1019761
15:00+10зсз426814 0.0 1019712
18:00+8сз21785 0.0 1020330
21:00+7всв118342 0.0 102141
14 апреля, ср
ср1400:00+7всв11661 0.0 101910
03:00+7вюв11480 0.0 101910
06:00+7вюв22350 0.0 101910
09:00+12з21340 0.0 1020256
12:00+15з32365 0.0 1018695
15:00+15зсз3255100 0.0 1018515
18:00+14зсз116199 0.0 1017175
21:00+12вюв22523 0.0 101812
15 апреля, чт
чт1500:00+12вюв22400 0.0 101713
03:00+12вюв22325 0.0 101712
06:00+12вюв3228100 0.0 101712
09:00+17ююз1127100 0.0 1017182
12:00+19з2230100 0.0 1016686
15:00+19зсз32335 0.0 1016638
18:00+18сз11420 0.0 1016172
21:00+15в11310 0.0 101611